アトラス彗星

C/2019 Y4 ( ATLAS )

English version
Home page
Updated on April 3, 2020

---------------------------------------------------------------------

・ プロフィール

発見日 2019年12月28日
発見光度 19.6等
発見者 Asteroid Terrestrial-Impact Last Alert System (ATLAS) search program

・ 写真集

・ 軌道要素

Epoch 2020 May 31.0 TT = JDT 2459000.5
T 2020 May 31.01440 TT                                  Rudenko
q   0.2528310            (2000.0)            P               Q
z  +0.0029933      Peri.  177.41009     +0.48073934     +0.62712423
 +/-0.0000051      Node   120.56970     -0.81675930     +0.57456253
e   0.9992432      Incl.   45.38141     -0.31905160     -0.52592119
From 916 observations 2019 Dec. 28-2020 Mar. 19, mean residual 0".5.

・ 星図

・ 光度変化

        m1 = -0.5 + 5 logΔ + 36   log r  [   ,-73]  (              〜2020年 3月19日)
        m1 =  5.5 + 5 logΔ + 10.0 log r  [-73,   ]  (2020年 3月19日〜              )

---------------------------------------------------------------------

軌道要素はM.P.E.C. 2020-F67に掲載されたものです。
星図はステラナビゲータ Ver.10 (アストロアーツ) で作成したものです。
光度グラフはComet for Windowsで作成したものです。

---------------------------------------------------------------------

Copyright(C) Seiichi Yoshida (comet@aerith.net). All rights reserved.